Year,Month,Day,Hour,Minute,Value (Times are PST for insolation in W/m^2)
2015,03,31,00,00,0.00
2015,03,31,00,01,0.00
2015,03,31,00,02,0.00
2015,03,31,00,03,0.00
2015,03,31,00,04,0.00
2015,03,31,00,05,0.00
2015,03,31,00,06,0.00
2015,03,31,00,07,0.00
2015,03,31,00,08,0.00
2015,03,31,00,09,0.00
2015,03,31,00,10,0.00
2015,03,31,00,11,0.00
2015,03,31,00,12,0.00
2015,03,31,00,13,0.00
2015,03,31,00,14,0.00
2015,03,31,00,15,0.00
2015,03,31,00,16,0.00
2015,03,31,00,17,0.00
2015,03,31,00,18,0.00
2015,03,31,00,19,0.00
2015,03,31,00,20,0.00
2015,03,31,00,21,0.00
2015,03,31,00,22,0.00
2015,03,31,00,23,0.00
2015,03,31,00,24,0.00
2015,03,31,00,25,0.00
2015,03,31,00,26,0.00
2015,03,31,00,27,0.00
2015,03,31,00,28,0.00
2015,03,31,00,29,0.00
2015,03,31,00,30,0.00
2015,03,31,00,31,0.00
2015,03,31,00,32,0.00
2015,03,31,00,33,0.00
2015,03,31,00,34,0.00
2015,03,31,00,35,0.00
2015,03,31,00,36,0.00
2015,03,31,00,37,0.00
2015,03,31,00,38,0.00
2015,03,31,00,39,0.00
2015,03,31,00,40,0.00
2015,03,31,00,41,0.00
2015,03,31,00,42,0.00
2015,03,31,00,43,0.00
2015,03,31,00,44,0.00
2015,03,31,00,45,0.00
2015,03,31,00,46,0.00
2015,03,31,00,47,0.00
2015,03,31,00,48,0.00
2015,03,31,00,49,0.00
2015,03,31,00,50,0.00
2015,03,31,00,51,0.00
2015,03,31,00,52,0.00
2015,03,31,00,53,0.00
2015,03,31,00,54,0.00
2015,03,31,00,55,0.00
2015,03,31,00,56,0.00
2015,03,31,00,57,0.00
2015,03,31,00,58,0.00
2015,03,31,00,59,0.00
2015,03,31,01,00,0.00
2015,03,31,01,01,0.00
2015,03,31,01,02,0.00
2015,03,31,01,03,0.00
2015,03,31,01,04,0.00
2015,03,31,01,05,0.00
2015,03,31,01,06,0.00
2015,03,31,01,07,0.00
2015,03,31,01,08,0.00
2015,03,31,01,09,0.00
2015,03,31,01,10,0.00
2015,03,31,01,11,0.00
2015,03,31,01,12,0.00
2015,03,31,01,13,0.00
2015,03,31,01,14,0.00
2015,03,31,01,15,0.00
2015,03,31,01,16,0.00
2015,03,31,01,17,0.00
2015,03,31,01,18,0.00
2015,03,31,01,19,0.00
2015,03,31,01,20,0.00
2015,03,31,01,21,0.00
2015,03,31,01,22,0.00
2015,03,31,01,23,0.00
2015,03,31,01,24,0.00
2015,03,31,01,25,0.00
2015,03,31,01,26,0.00
2015,03,31,01,27,0.00
2015,03,31,01,28,0.00
2015,03,31,01,29,0.00
2015,03,31,01,30,0.00
2015,03,31,01,31,0.00
2015,03,31,01,32,0.00
2015,03,31,01,33,0.00
2015,03,31,01,34,0.00
2015,03,31,01,35,0.00
2015,03,31,01,36,0.00
2015,03,31,01,37,0.00
2015,03,31,01,38,0.00
2015,03,31,01,39,0.00
2015,03,31,01,40,0.00
2015,03,31,01,41,0.00
2015,03,31,01,42,0.00
2015,03,31,01,43,0.00
2015,03,31,01,44,0.00
2015,03,31,01,45,0.00
2015,03,31,01,46,0.00
2015,03,31,01,47,0.00
2015,03,31,01,48,0.00
2015,03,31,01,49,0.00
2015,03,31,01,50,0.00
2015,03,31,01,51,0.00
2015,03,31,01,52,0.00
2015,03,31,01,53,0.00
2015,03,31,01,54,0.00
2015,03,31,01,55,0.00
2015,03,31,01,56,0.00
2015,03,31,01,57,0.00
2015,03,31,01,58,0.00
2015,03,31,01,59,0.00
2015,03,31,02,00,0.00
2015,03,31,02,01,0.00
2015,03,31,02,02,0.00
2015,03,31,02,03,0.00
2015,03,31,02,04,0.00
2015,03,31,02,05,0.00
2015,03,31,02,06,0.00
2015,03,31,02,07,0.00
2015,03,31,02,08,0.00
2015,03,31,02,09,0.00
2015,03,31,02,10,0.00
2015,03,31,02,11,0.00
2015,03,31,02,12,0.00
2015,03,31,02,13,0.00
2015,03,31,02,14,0.00
2015,03,31,02,15,0.00
2015,03,31,02,16,0.00
2015,03,31,02,17,0.00
2015,03,31,02,18,0.00
2015,03,31,02,19,0.00
2015,03,31,02,20,0.00
2015,03,31,02,21,0.00
2015,03,31,02,22,0.00
2015,03,31,02,23,0.00
2015,03,31,02,24,0.00
2015,03,31,02,25,0.00
2015,03,31,02,26,0.00
2015,03,31,02,27,0.00
2015,03,31,02,28,0.00
2015,03,31,02,29,0.00
2015,03,31,02,30,0.00
2015,03,31,02,31,0.00
2015,03,31,02,32,0.00
2015,03,31,02,33,0.00
2015,03,31,02,34,0.00
2015,03,31,02,35,0.00
2015,03,31,02,36,0.00
2015,03,31,02,37,0.00
2015,03,31,02,38,0.00
2015,03,31,02,39,0.00
2015,03,31,02,40,0.00
2015,03,31,02,41,0.00
2015,03,31,02,42,0.00
2015,03,31,02,43,0.00
2015,03,31,02,44,0.00
2015,03,31,02,45,0.00
2015,03,31,02,46,0.00
2015,03,31,02,47,0.00
2015,03,31,02,48,0.00
2015,03,31,02,49,0.00
2015,03,31,02,50,0.00
2015,03,31,02,51,0.00
2015,03,31,02,52,0.00
2015,03,31,02,53,0.00
2015,03,31,02,54,0.00
2015,03,31,02,55,0.00
2015,03,31,02,56,0.00
2015,03,31,02,57,0.00
2015,03,31,02,58,0.00
2015,03,31,02,59,0.00
2015,03,31,03,00,0.00
2015,03,31,03,01,0.00
2015,03,31,03,02,0.00
2015,03,31,03,03,0.00
2015,03,31,03,04,0.00
2015,03,31,03,05,0.00
2015,03,31,03,06,0.00
2015,03,31,03,07,0.00
2015,03,31,03,08,0.00
2015,03,31,03,09,0.00
2015,03,31,03,10,0.00
2015,03,31,03,11,0.00
2015,03,31,03,12,0.00
2015,03,31,03,13,0.00
2015,03,31,03,14,0.00
2015,03,31,03,15,0.00
2015,03,31,03,16,0.00
2015,03,31,03,17,0.00
2015,03,31,03,18,0.00
2015,03,31,03,19,0.00
2015,03,31,03,20,0.00
2015,03,31,03,21,0.00
2015,03,31,03,22,0.00
2015,03,31,03,23,0.00
2015,03,31,03,24,0.00
2015,03,31,03,25,0.00
2015,03,31,03,26,0.00
2015,03,31,03,27,0.00
2015,03,31,03,28,0.00
2015,03,31,03,29,0.00
2015,03,31,03,30,0.00
2015,03,31,03,31,0.00
2015,03,31,03,32,0.00
2015,03,31,03,33,0.00
2015,03,31,03,34,0.00
2015,03,31,03,35,0.00
2015,03,31,03,36,0.00
2015,03,31,03,37,0.00
2015,03,31,03,38,0.00
2015,03,31,03,39,0.00
2015,03,31,03,40,0.00
2015,03,31,03,41,0.00
2015,03,31,03,42,0.00
2015,03,31,03,43,0.00
2015,03,31,03,44,0.00
2015,03,31,03,45,0.00
2015,03,31,03,46,0.00
2015,03,31,03,47,0.00
2015,03,31,03,48,0.00
2015,03,31,03,49,0.00
2015,03,31,03,50,0.00
2015,03,31,03,51,0.00
2015,03,31,03,52,0.00
2015,03,31,03,53,0.00
2015,03,31,03,54,0.00
2015,03,31,03,55,0.00
2015,03,31,03,56,0.00
2015,03,31,03,57,0.00
2015,03,31,03,58,0.00
2015,03,31,03,59,0.00
2015,03,31,04,00,0.00
2015,03,31,04,01,0.00
2015,03,31,04,02,0.00
2015,03,31,04,03,0.00
2015,03,31,04,04,0.00
2015,03,31,04,05,0.00
2015,03,31,04,06,0.00
2015,03,31,04,07,0.00
2015,03,31,04,08,0.00
2015,03,31,04,09,0.00
2015,03,31,04,10,0.00
2015,03,31,04,11,0.00
2015,03,31,04,12,0.00
2015,03,31,04,13,0.00
2015,03,31,04,14,0.00
2015,03,31,04,15,0.00
2015,03,31,04,16,0.00
2015,03,31,04,17,0.00
2015,03,31,04,18,0.00
2015,03,31,04,19,0.00
2015,03,31,04,20,0.00
2015,03,31,04,21,0.00
2015,03,31,04,22,0.00
2015,03,31,04,23,0.00
2015,03,31,04,24,0.00
2015,03,31,04,25,0.00
2015,03,31,04,26,0.00
2015,03,31,04,27,0.00
2015,03,31,04,28,0.00
2015,03,31,04,29,0.00
2015,03,31,04,30,0.00
2015,03,31,04,31,0.00
2015,03,31,04,32,0.00
2015,03,31,04,33,0.00
2015,03,31,04,34,0.00
2015,03,31,04,35,0.00
2015,03,31,04,36,0.00
2015,03,31,04,37,0.00
2015,03,31,04,38,0.00
2015,03,31,04,39,0.00
2015,03,31,04,40,0.00
2015,03,31,04,41,0.00
2015,03,31,04,42,0.00
2015,03,31,04,43,0.00
2015,03,31,04,44,0.00
2015,03,31,04,45,0.00
2015,03,31,04,46,0.00
2015,03,31,04,47,0.00
2015,03,31,04,48,0.00
2015,03,31,04,49,0.00
2015,03,31,04,50,0.00
2015,03,31,04,51,0.00
2015,03,31,04,52,0.00
2015,03,31,04,53,0.00
2015,03,31,04,54,0.00
2015,03,31,04,55,0.00
2015,03,31,04,56,0.00
2015,03,31,04,57,0.00
2015,03,31,04,58,0.00
2015,03,31,04,59,0.00
2015,03,31,05,00,0.00
2015,03,31,05,01,0.00
2015,03,31,05,02,0.00
2015,03,31,05,03,0.00
2015,03,31,05,04,0.00
2015,03,31,05,05,0.00
2015,03,31,05,06,0.00
2015,03,31,05,07,0.00
2015,03,31,05,08,0.00
2015,03,31,05,09,0.00
2015,03,31,05,10,0.00
2015,03,31,05,11,0.00
2015,03,31,05,12,0.00
2015,03,31,05,13,0.00
2015,03,31,05,14,0.00
2015,03,31,05,15,0.00
2015,03,31,05,16,0.00
2015,03,31,05,17,0.00
2015,03,31,05,18,0.00
2015,03,31,05,19,0.00
2015,03,31,05,20,0.00
2015,03,31,05,21,0.00
2015,03,31,05,22,0.00
2015,03,31,05,23,0.00
2015,03,31,05,24,0.00
2015,03,31,05,25,0.00
2015,03,31,05,26,0.00
2015,03,31,05,27,0.00
2015,03,31,05,28,0.00
2015,03,31,05,29,0.00
2015,03,31,05,30,0.00
2015,03,31,05,31,0.00
2015,03,31,05,32,0.00
2015,03,31,05,33,0.00
2015,03,31,05,34,0.00
2015,03,31,05,35,0.00
2015,03,31,05,36,0.00
2015,03,31,05,37,0.00
2015,03,31,05,38,0.00
2015,03,31,05,39,0.00
2015,03,31,05,40,0.00
2015,03,31,05,41,0.00
2015,03,31,05,42,0.00
2015,03,31,05,43,0.00
2015,03,31,05,44,0.00
2015,03,31,05,45,0.00
2015,03,31,05,46,0.00
2015,03,31,05,47,0.00
2015,03,31,05,48,0.00
2015,03,31,05,49,0.00
2015,03,31,05,50,0.00
2015,03,31,05,51,0.00
2015,03,31,05,52,0.00
2015,03,31,05,53,0.00
2015,03,31,05,54,0.00
2015,03,31,05,55,0.00
2015,03,31,05,56,0.00
2015,03,31,05,57,0.00
2015,03,31,05,58,0.00
2015,03,31,05,59,0.00
2015,03,31,06,00,0.00
2015,03,31,06,01,0.00
2015,03,31,06,02,0.00
2015,03,31,06,03,0.00
2015,03,31,06,04,0.00
2015,03,31,06,05,0.00
2015,03,31,06,06,0.00
2015,03,31,06,07,0.00
2015,03,31,06,08,0.00
2015,03,31,06,09,0.00
2015,03,31,06,10,0.00
2015,03,31,06,11,0.00
2015,03,31,06,12,0.00
2015,03,31,06,13,0.00
2015,03,31,06,14,0.00
2015,03,31,06,15,0.00
2015,03,31,06,16,0.00
2015,03,31,06,17,0.00
2015,03,31,06,18,0.00
2015,03,31,06,19,0.00
2015,03,31,06,20,0.00
2015,03,31,06,21,0.00
2015,03,31,06,22,0.00
2015,03,31,06,23,0.00
2015,03,31,06,24,0.00
2015,03,31,06,25,0.00
2015,03,31,06,26,0.00
2015,03,31,06,27,0.00
2015,03,31,06,28,0.00
2015,03,31,06,29,0.00
2015,03,31,06,30,0.00
2015,03,31,06,31,0.00
2015,03,31,06,32,0.00
2015,03,31,06,33,0.00
2015,03,31,06,34,0.00
2015,03,31,06,35,0.00
2015,03,31,06,36,0.00
2015,03,31,06,37,0.00
2015,03,31,06,38,0.00
2015,03,31,06,39,0.00
2015,03,31,06,40,0.00
2015,03,31,06,41,0.00
2015,03,31,06,42,0.00
2015,03,31,06,43,0.00
2015,03,31,06,44,0.00
2015,03,31,06,45,0.00
2015,03,31,06,46,0.00
2015,03,31,06,47,0.00
2015,03,31,06,48,0.00
2015,03,31,06,49,0.00
2015,03,31,06,50,0.00
2015,03,31,06,51,0.00
2015,03,31,06,52,0.00
2015,03,31,06,53,0.00
2015,03,31,06,54,0.00
2015,03,31,06,55,0.00
2015,03,31,06,56,0.00
2015,03,31,06,57,0.00
2015,03,31,06,58,0.00
2015,03,31,06,59,0.00
2015,03,31,07,00,0.00
2015,03,31,07,01,0.00
2015,03,31,07,02,0.00
2015,03,31,07,03,0.00
2015,03,31,07,04,0.00
2015,03,31,07,05,0.00
2015,03,31,07,06,0.00
2015,03,31,07,07,1.70
2015,03,31,07,08,5.00
2015,03,31,07,09,5.00
2015,03,31,07,10,5.00
2015,03,31,07,11,6.30
2015,03,31,07,12,7.00
2015,03,31,07,13,7.00
2015,03,31,07,14,8.90
2015,03,31,07,15,9.00
2015,03,31,07,16,9.00
2015,03,31,07,17,9.00
2015,03,31,07,18,9.70
2015,03,31,07,19,11.00
2015,03,31,07,20,11.00
2015,03,31,07,21,11.60
2015,03,31,07,22,12.00
2015,03,31,07,23,12.00
2015,03,31,07,24,13.60
2015,03,31,07,25,14.00
2015,03,31,07,26,16.00
2015,03,31,07,27,16.00
2015,03,31,07,28,16.50
2015,03,31,07,29,18.00
2015,03,31,07,30,18.00
2015,03,31,07,31,18.50
2015,03,31,07,32,20.10
2015,03,31,07,33,22.30
2015,03,31,07,34,25.20
2015,03,31,07,35,27.60
2015,03,31,07,36,32.40
2015,03,31,07,37,37.00
2015,03,31,07,38,39.40
2015,03,31,07,39,42.90
2015,03,31,07,40,46.30
2015,03,31,07,41,47.80
2015,03,31,07,42,49.00
2015,03,31,07,43,49.00
2015,03,31,07,44,49.00
2015,03,31,07,45,50.50
2015,03,31,07,46,51.00
2015,03,31,07,47,51.00
2015,03,31,07,48,50.90
2015,03,31,07,49,48.70
2015,03,31,07,50,46.30
2015,03,31,07,51,44.00
2015,03,31,07,52,48.10
2015,03,31,07,53,56.90
2015,03,31,07,54,57.80
2015,03,31,07,55,50.30
2015,03,31,07,56,43.30
2015,03,31,07,57,43.60
2015,03,31,07,58,44.00
2015,03,31,07,59,45.90
2015,03,31,08,00,46.00
2015,03,31,08,01,46.00
2015,03,31,08,02,46.00
2015,03,31,08,03,46.40
2015,03,31,08,04,49.90
2015,03,31,08,05,58.60
2015,03,31,08,06,63.00
2015,03,31,08,07,83.00
2015,03,31,08,08,103.90
2015,03,31,08,09,110.60
2015,03,31,08,10,113.10
2015,03,31,08,11,115.70
2015,03,31,08,12,115.30
2015,03,31,08,13,123.00
2015,03,31,08,14,130.00
2015,03,31,08,15,128.60
2015,03,31,08,16,128.70
2015,03,31,08,17,134.70
2015,03,31,08,18,140.70
2015,03,31,08,19,142.00
2015,03,31,08,20,148.20
2015,03,31,08,21,160.40
2015,03,31,08,22,171.70
2015,03,31,08,23,178.20
2015,03,31,08,24,180.40
2015,03,31,08,25,159.70
2015,03,31,08,26,140.80
2015,03,31,08,27,135.90
2015,03,31,08,28,149.10
2015,03,31,08,29,167.60
2015,03,31,08,30,176.90
2015,03,31,08,31,187.30
2015,03,31,08,32,185.10
2015,03,31,08,33,174.00
2015,03,31,08,34,162.60
2015,03,31,08,35,128.30
2015,03,31,08,36,125.80
2015,03,31,08,37,127.50
2015,03,31,08,38,177.20
2015,03,31,08,39,164.30
2015,03,31,08,40,186.20
2015,03,31,08,41,135.20
2015,03,31,08,42,116.30
2015,03,31,08,43,108.90
2015,03,31,08,44,107.00
2015,03,31,08,45,108.60
2015,03,31,08,46,131.70
2015,03,31,08,47,142.50
2015,03,31,08,48,102.10
2015,03,31,08,49,100.00
2015,03,31,08,50,123.30
2015,03,31,08,51,158.70
2015,03,31,08,52,174.70
2015,03,31,08,53,176.00
2015,03,31,08,54,198.30
2015,03,31,08,55,212.70
2015,03,31,08,56,207.00
2015,03,31,08,57,214.70
2015,03,31,08,58,233.70
2015,03,31,08,59,243.30
2015,03,31,09,00,220.70
2015,03,31,09,01,180.00
2015,03,31,09,02,181.60
2015,03,31,09,03,144.30
2015,03,31,09,04,173.00
2015,03,31,09,05,208.80
2015,03,31,09,06,252.00
2015,03,31,09,07,278.00
2015,03,31,09,08,287.90
2015,03,31,09,09,243.40
2015,03,31,09,10,197.30
2015,03,31,09,11,219.80
2015,03,31,09,12,231.50
2015,03,31,09,13,253.90
2015,03,31,09,14,223.30
2015,03,31,09,15,222.00
2015,03,31,09,16,127.10
2015,03,31,09,17,129.50
2015,03,31,09,18,194.10
2015,03,31,09,19,142.50
2015,03,31,09,20,127.00
2015,03,31,09,21,188.60
2015,03,31,09,22,202.20
2015,03,31,09,23,136.70
2015,03,31,09,24,190.90
2015,03,31,09,25,172.40
2015,03,31,09,26,228.70
2015,03,31,09,27,217.70
2015,03,31,09,28,203.60
2015,03,31,09,29,143.20
2015,03,31,09,30,142.70
2015,03,31,09,31,150.10
2015,03,31,09,32,151.20
2015,03,31,09,33,146.00
2015,03,31,09,34,195.00
2015,03,31,09,35,217.50
2015,03,31,09,36,185.90
2015,03,31,09,37,242.40
2015,03,31,09,38,263.30
2015,03,31,09,39,221.00
2015,03,31,09,40,210.10
2015,03,31,09,41,172.70
2015,03,31,09,42,169.40
2015,03,31,09,43,183.00
2015,03,31,09,44,183.00
2015,03,31,09,45,314.60
2015,03,31,09,46,388.30
2015,03,31,09,47,387.80
2015,03,31,09,48,381.80
2015,03,31,09,49,360.30
2015,03,31,09,50,372.10
2015,03,31,09,51,358.40
2015,03,31,09,52,392.40
2015,03,31,09,53,406.30
2015,03,31,09,54,410.50
2015,03,31,09,55,402.80
2015,03,31,09,56,397.00
2015,03,31,09,57,412.60
2015,03,31,09,58,431.00
2015,03,31,09,59,432.20
2015,03,31,10,00,423.00
2015,03,31,10,01,404.20
2015,03,31,10,02,397.10
2015,03,31,10,03,412.00
2015,03,31,10,04,420.80
2015,03,31,10,05,416.70
2015,03,31,10,06,407.10
2015,03,31,10,07,413.30
2015,03,31,10,08,444.70
2015,03,31,10,09,473.60
2015,03,31,10,10,494.90
2015,03,31,10,11,495.60
2015,03,31,10,12,489.30
2015,03,31,10,13,486.10
2015,03,31,10,14,486.40
2015,03,31,10,15,477.20
2015,03,31,10,16,466.30
2015,03,31,10,17,436.70
2015,03,31,10,18,442.30
2015,03,31,10,19,458.10
2015,03,31,10,20,466.70
2015,03,31,10,21,466.20
2015,03,31,10,22,465.10
2015,03,31,10,23,474.40
2015,03,31,10,24,453.60
2015,03,31,10,25,451.30
2015,03,31,10,26,450.00
2015,03,31,10,27,445.70
2015,03,31,10,28,439.80
2015,03,31,10,29,412.30
2015,03,31,10,30,419.70
2015,03,31,10,31,392.80
2015,03,31,10,32,373.90
2015,03,31,10,33,430.40
2015,03,31,10,34,472.70
2015,03,31,10,35,471.00
2015,03,31,10,36,471.00
2015,03,31,10,37,430.30
2015,03,31,10,38,419.20
2015,03,31,10,39,493.00
2015,03,31,10,40,522.30
2015,03,31,10,41,518.10
2015,03,31,10,42,475.00
2015,03,31,10,43,519.70
2015,03,31,10,44,506.70
2015,03,31,10,45,534.40
2015,03,31,10,46,549.60
2015,03,31,10,47,534.60
2015,03,31,10,48,534.80
2015,03,31,10,49,513.30
2015,03,31,10,50,495.90
2015,03,31,10,51,520.40
2015,03,31,10,52,523.40
2015,03,31,10,53,546.10
2015,03,31,10,54,591.10
2015,03,31,10,55,590.60
2015,03,31,10,56,546.40
2015,03,31,10,57,545.70
2015,03,31,10,58,546.70
2015,03,31,10,59,530.70
2015,03,31,11,00,537.00
2015,03,31,11,01,536.90
2015,03,31,11,02,566.70
2015,03,31,11,03,585.70
2015,03,31,11,04,551.10
2015,03,31,11,05,499.40
2015,03,31,11,06,563.40
2015,03,31,11,07,532.60
2015,03,31,11,08,467.90
2015,03,31,11,09,458.30
2015,03,31,11,10,484.80
2015,03,31,11,11,499.00
2015,03,31,11,12,475.70
2015,03,31,11,13,457.00
2015,03,31,11,14,457.00
2015,03,31,11,15,581.70
2015,03,31,11,16,612.70
2015,03,31,11,17,608.50
2015,03,31,11,18,563.90
2015,03,31,11,19,569.20
2015,03,31,11,20,588.00
2015,03,31,11,21,578.50
2015,03,31,11,22,573.00
2015,03,31,11,23,573.00
2015,03,31,11,24,615.20
2015,03,31,11,25,640.00
2015,03,31,11,26,640.00
2015,03,31,11,27,640.00
2015,03,31,11,28,587.20
2015,03,31,11,29,587.70
2015,03,31,11,30,594.90
2015,03,31,11,31,604.40
2015,03,31,11,32,603.00
2015,03,31,11,33,604.40
2015,03,31,11,34,578.10
2015,03,31,11,35,585.00
2015,03,31,11,36,615.00
2015,03,31,11,37,625.10
2015,03,31,11,38,601.10
2015,03,31,11,39,566.00
2015,03,31,11,40,584.50
2015,03,31,11,41,590.60
2015,03,31,11,42,554.00
2015,03,31,11,43,537.60
2015,03,31,11,44,519.10
2015,03,31,11,45,498.00
2015,03,31,11,46,495.30
2015,03,31,11,47,493.00
2015,03,31,11,48,506.70
2015,03,31,11,49,524.20
2015,03,31,11,50,525.90
2015,03,31,11,51,520.30
2015,03,31,11,52,489.70
2015,03,31,11,53,437.10
2015,03,31,11,54,390.00
2015,03,31,11,55,335.10
2015,03,31,11,56,276.00
2015,03,31,11,57,346.00
2015,03,31,11,58,425.40
2015,03,31,11,59,427.10
2015,03,31,12,00,356.40
2015,03,31,12,01,321.90
2015,03,31,12,02,345.00
2015,03,31,12,03,385.40
2015,03,31,12,04,520.00
2015,03,31,12,05,506.00
2015,03,31,12,06,408.70
2015,03,31,12,07,280.70
2015,03,31,12,08,257.30
2015,03,31,12,09,255.00
2015,03,31,12,10,247.70
2015,03,31,12,11,243.30
2015,03,31,12,12,240.30
2015,03,31,12,13,230.70
2015,03,31,12,14,222.30
2015,03,31,12,15,220.00
2015,03,31,12,16,220.00
2015,03,31,12,17,356.70
2015,03,31,12,18,511.20
2015,03,31,12,19,551.00
2015,03,31,12,20,580.60
2015,03,31,12,21,618.40
2015,03,31,12,22,589.60
2015,03,31,12,23,541.80
2015,03,31,12,24,572.90
2015,03,31,12,25,632.90
2015,03,31,12,26,670.00
2015,03,31,12,27,674.30
2015,03,31,12,28,639.90
2015,03,31,12,29,592.80
2015,03,31,12,30,595.00
2015,03,31,12,31,625.70
2015,03,31,12,32,658.30
2015,03,31,12,33,667.70
2015,03,31,12,34,641.00
2015,03,31,12,35,630.50
2015,03,31,12,36,651.70
2015,03,31,12,37,663.60
2015,03,31,12,38,633.30
2015,03,31,12,39,611.40
2015,03,31,12,40,617.40
2015,03,31,12,41,628.60
2015,03,31,12,42,645.00
2015,03,31,12,43,653.30
2015,03,31,12,44,641.60
2015,03,31,12,45,637.00
2015,03,31,12,46,658.60
2015,03,31,12,47,670.40
2015,03,31,12,48,682.00
2015,03,31,12,49,684.90
2015,03,31,12,50,676.10
2015,03,31,12,51,671.90
2015,03,31,12,52,663.40
2015,03,31,12,53,621.20
2015,03,31,12,54,619.40
2015,03,31,12,55,590.90
2015,03,31,12,56,613.80
2015,03,31,12,57,635.30
2015,03,31,12,58,638.10
2015,03,31,12,59,673.30
2015,03,31,13,00,694.00
2015,03,31,13,01,694.00
2015,03,31,13,02,655.10
2015,03,31,13,03,619.30
2015,03,31,13,04,632.60
2015,03,31,13,05,647.00
2015,03,31,13,06,676.60
2015,03,31,13,07,711.30
2015,03,31,13,08,732.60
2015,03,31,13,09,759.00
2015,03,31,13,10,757.30
2015,03,31,13,11,752.80
2015,03,31,13,12,770.30
2015,03,31,13,13,791.00
2015,03,31,13,14,821.70
2015,03,31,13,15,840.80
2015,03,31,13,16,838.10
2015,03,31,13,17,837.00
2015,03,31,13,18,837.90
2015,03,31,13,19,831.60
2015,03,31,13,20,808.40
2015,03,31,13,21,784.70
2015,03,31,13,22,749.40
2015,03,31,13,23,712.40
2015,03,31,13,24,684.90
2015,03,31,13,25,697.20
2015,03,31,13,26,734.60
2015,03,31,13,27,752.30
2015,03,31,13,28,757.70
2015,03,31,13,29,754.10
2015,03,31,13,30,750.50
2015,03,31,13,31,735.30
2015,03,31,13,32,719.40
2015,03,31,13,33,739.90
2015,03,31,13,34,743.00
2015,03,31,13,35,747.60
2015,03,31,13,36,752.00
2015,03,31,13,37,752.00
2015,03,31,13,38,699.00
2015,03,31,13,39,687.00
2015,03,31,13,40,687.00
2015,03,31,13,41,666.30
2015,03,31,13,42,547.00
2015,03,31,13,43,588.20
2015,03,31,13,44,686.00
2015,03,31,13,45,534.30
2015,03,31,13,46,355.60
2015,03,31,13,47,379.70
2015,03,31,13,48,372.60
2015,03,31,13,49,358.30
2015,03,31,13,50,357.00
2015,03,31,13,51,357.00
2015,03,31,13,52,357.00
2015,03,31,13,53,453.00
2015,03,31,13,54,789.00
2015,03,31,13,55,789.00
2015,03,31,13,56,789.00
2015,03,31,13,57,789.00
2015,03,31,13,58,522.70
2015,03,31,13,59,366.00
2015,03,31,14,00,366.00
2015,03,31,14,01,366.00
2015,03,31,14,02,364.70
2015,03,31,14,03,347.00
2015,03,31,14,04,339.00
2015,03,31,14,05,328.70
2015,03,31,14,06,319.10
2015,03,31,14,07,305.40
2015,03,31,14,08,289.40
2015,03,31,14,09,280.30
2015,03,31,14,10,273.60
2015,03,31,14,11,271.20
2015,03,31,14,12,271.90
2015,03,31,14,13,271.40
2015,03,31,14,14,278.10
2015,03,31,14,15,297.30
2015,03,31,14,16,318.00
2015,03,31,14,17,318.00
2015,03,31,14,18,367.10
2015,03,31,14,19,381.10
2015,03,31,14,20,363.70
2015,03,31,14,21,367.50
2015,03,31,14,22,366.00
2015,03,31,14,23,366.00
2015,03,31,14,24,366.00
2015,03,31,14,25,433.90
2015,03,31,14,26,824.00
2015,03,31,14,27,824.00
2015,03,31,14,28,814.20
2015,03,31,14,29,804.80
2015,03,31,14,30,835.60
2015,03,31,14,31,849.70
2015,03,31,14,32,846.00
2015,03,31,14,33,846.00
2015,03,31,14,34,846.00
2015,03,31,14,35,554.20
2015,03,31,14,36,543.00
2015,03,31,14,37,591.90
2015,03,31,14,38,763.60
2015,03,31,14,39,750.00
2015,03,31,14,40,715.80
2015,03,31,14,41,674.70
2015,03,31,14,42,662.10
2015,03,31,14,43,630.70
2015,03,31,14,44,566.10
2015,03,31,14,45,613.70
2015,03,31,14,46,590.20
2015,03,31,14,47,589.00
2015,03,31,14,48,549.40
2015,03,31,14,49,411.00
2015,03,31,14,50,494.00
2015,03,31,14,51,647.50
2015,03,31,14,52,650.40
2015,03,31,14,53,650.00
2015,03,31,14,54,665.90
2015,03,31,14,55,665.10
2015,03,31,14,56,647.10
2015,03,31,14,57,577.90
2015,03,31,14,58,547.10
2015,03,31,14,59,535.00
2015,03,31,15,00,593.20
2015,03,31,15,01,576.40
2015,03,31,15,02,531.50
2015,03,31,15,03,532.60
2015,03,31,15,04,553.00
2015,03,31,15,05,580.70
2015,03,31,15,06,594.70
2015,03,31,15,07,585.30
2015,03,31,15,08,562.80
2015,03,31,15,09,542.00
2015,03,31,15,10,571.40
2015,03,31,15,11,563.30
2015,03,31,15,12,555.10
2015,03,31,15,13,566.70
2015,03,31,15,14,605.00
2015,03,31,15,15,651.90
2015,03,31,15,16,678.40
2015,03,31,15,17,679.70
2015,03,31,15,18,679.00
2015,03,31,15,19,654.50
2015,03,31,15,20,637.30
2015,03,31,15,21,608.40
2015,03,31,15,22,594.10
2015,03,31,15,23,579.50
2015,03,31,15,24,605.90
2015,03,31,15,25,627.90
2015,03,31,15,26,632.30
2015,03,31,15,27,646.40
2015,03,31,15,28,656.10
2015,03,31,15,29,662.30
2015,03,31,15,30,614.30
2015,03,31,15,31,519.10
2015,03,31,15,32,439.00
2015,03,31,15,33,394.70
2015,03,31,15,34,332.20
2015,03,31,15,35,369.60
2015,03,31,15,36,321.80
2015,03,31,15,37,280.40
2015,03,31,15,38,267.10
2015,03,31,15,39,252.60
2015,03,31,15,40,235.80
2015,03,31,15,41,215.40
2015,03,31,15,42,196.60
2015,03,31,15,43,183.00
2015,03,31,15,44,175.00
2015,03,31,15,45,152.70
2015,03,31,15,46,144.60
2015,03,31,15,47,137.70
2015,03,31,15,48,134.40
2015,03,31,15,49,134.70
2015,03,31,15,50,138.30
2015,03,31,15,51,143.40
2015,03,31,15,52,149.30
2015,03,31,15,53,156.60
2015,03,31,15,54,160.40
2015,03,31,15,55,162.00
2015,03,31,15,56,162.00
2015,03,31,15,57,162.00
2015,03,31,15,58,164.80
2015,03,31,15,59,171.40
2015,03,31,16,00,180.70
2015,03,31,16,01,192.80
2015,03,31,16,02,205.70
2015,03,31,16,03,218.30
2015,03,31,16,04,227.70
2015,03,31,16,05,232.40
2015,03,31,16,06,234.00
2015,03,31,16,07,233.20
2015,03,31,16,08,232.00
2015,03,31,16,09,232.00
2015,03,31,16,10,233.30
2015,03,31,16,11,236.20
2015,03,31,16,12,241.90
2015,03,31,16,13,261.70
2015,03,31,16,14,289.80
2015,03,31,16,15,339.40
2015,03,31,16,16,357.30
2015,03,31,16,17,347.30
2015,03,31,16,18,334.30
2015,03,31,16,19,313.70
2015,03,31,16,20,295.30
2015,03,31,16,21,290.00
2015,03,31,16,22,312.50
2015,03,31,16,23,314.70
2015,03,31,16,24,313.00
2015,03,31,16,25,348.60
2015,03,31,16,26,350.00
2015,03,31,16,27,415.60
2015,03,31,16,28,648.70
2015,03,31,16,29,646.80
2015,03,31,16,30,632.00
2015,03,31,16,31,620.20
2015,03,31,16,32,604.30
2015,03,31,16,33,601.00
2015,03,31,16,34,362.30
2015,03,31,16,35,304.40
2015,03,31,16,36,334.00
2015,03,31,16,37,341.90
2015,03,31,16,38,382.60
2015,03,31,16,39,364.00
2015,03,31,16,40,364.00
2015,03,31,16,41,400.50
2015,03,31,16,42,467.40
2015,03,31,16,43,479.40
2015,03,31,16,44,493.30
2015,03,31,16,45,501.00
2015,03,31,16,46,342.80
2015,03,31,16,47,324.80
2015,03,31,16,48,381.80
2015,03,31,16,49,488.70
2015,03,31,16,50,561.00
2015,03,31,16,51,489.90
2015,03,31,16,52,368.10
2015,03,31,16,53,410.30
2015,03,31,16,54,433.70
2015,03,31,16,55,466.40
2015,03,31,16,56,556.30
2015,03,31,16,57,519.70
2015,03,31,16,58,550.60
2015,03,31,16,59,529.00
2015,03,31,17,00,397.00
2015,03,31,17,01,397.00
2015,03,31,17,02,304.90
2015,03,31,17,03,163.30
2015,03,31,17,04,143.30
2015,03,31,17,05,126.80
2015,03,31,17,06,147.60
2015,03,31,17,07,229.60
2015,03,31,17,08,235.80
2015,03,31,17,09,147.40
2015,03,31,17,10,148.50
2015,03,31,17,11,161.20
2015,03,31,17,12,158.00
2015,03,31,17,13,159.80
2015,03,31,17,14,139.40